sat.trackr.live / text

‹ back to catalog

STARLINK-34735

NORAD 65072 · 2025-165S

PAYLOAD ACTIVE UNKNOWN

§ Identity

Operator
Country
US
Launch date
2025-07-31
Launch site
AFWTR
Launch vehicle
Mass (kg)
RCS (m²)

Purposes: comms

External: N2YO · Heavens-Above · Gunter

§ Orbital elements

Epoch: 2026-05-25T04:40:21.367200Z

Period
95.64 min
Inclination
97.4474°
Eccentricity
0.0002092
Mean motion
15.05659072 rev/d
Perigee alt
548.0 km
Apogee alt
550.9 km
Semi-major
6,927.6 km
B*
3.0926e-4
RAAN
222.2895°
Arg perigee
138.0478°
Mean anomaly
222.0910°
Rev number
4,630

§ Raw data

STARLINK-347351 65072U 25165S   26145.19469175  .00004408  00000+0  30926-3 0  99972 65072  97.4474 222.2895 0002092 138.0478 222.0910 15.05659072 46300

JSON: /api/v1/satellites/65072 · /tle

For live sub-satellite position, see the globe view (requires WebGL).

§ Visibility from observer

Set your observer location to see the next 7 days of passes ≥ 10°. The values pass through the URL so the page stays shareable.

No JS? Fill the form by hand. The geolocation button needs JavaScript.